Location: Brienzwiler
(46.7508°N, 8.1014°E)
Time: 16:59:25
(UTC+00:00)

Cosmos 2322 - Pass Details

Date: 05 July 2020
Orbit: 841 x 854 km, 71.0° (Epoch: 10 August)

Event Time Altitude Azimuth Distance (km) Brightness Sun altitude
Rises 20:17:13 0° 185° (S) 3,408 6.5 -7.8°
Reaches altitude 10° 20:19:44 10° 180° (S) 2,477 5.7 -8.1°
Maximum altitude 20:25:08 46° 108° (ESE) 1,138 4.0 -8.7°
Drops below altitude 10° 20:30:34 10° 37° (NE) 2,492 6.3 -9.4°
Sets 20:33:06 0° 32° (NNE) 3,432 7.1 -9.7°
